This is the latest recevied weather packets stored in our database for station/object KC9DNQ-3. If no packets are shown the sender has not sent any weather packets the latest 10 day(s).
| Time | Temp. | Humidity | Pressure | Rain* | Wind** | Luminosity | Snow |
|---|---|---|---|---|---|---|---|
| 1777674312 | 10.56° C | 53% | 1016.2 hPa | 0 mm | - | 171 W/m² | - |
| 1777674012 | 10.56° C | 54% | 1016.2 hPa | 0 mm | - | 167 W/m² | - |
| 1777673711 | 10.56° C | 55% | 1016.2 hPa | 0 mm | - | 151 W/m² | - |
| 1777673411 | 10.56° C | 56% | 1016.2 hPa | 0 mm | - | 121 W/m² | - |
| 1777673111 | 10.56° C | 54% | 1016.3 hPa | 0 mm | - | 116 W/m² | - |
| 1777672811 | 11.11° C | 54% | 1016.2 hPa | 0 mm | - | 130 W/m² | - |
| 1777672512 | 11.11° C | 52% | 1016.2 hPa | 0 mm | - | 130 W/m² | - |
| 1777672210 | 11.11° C | 50% | 1016.1 hPa | 0 mm | - | 116 W/m² | - |
| 1777671911 | 11.67° C | 52% | 1016.1 hPa | 0 mm | - | 125 W/m² | - |
| 1777671611 | 11.67° C | 49% | 1016.1 hPa | 0 mm | - | 200 W/m² | - |
| 1777671310 | 11.67° C | 49% | 1016.1 hPa | 0 mm | - | 311 W/m² | - |
| 1777671011 | 11.67° C | 51% | 1016.1 hPa | 0 mm | - | 404 W/m² | - |
| 1777670711 | 11.11° C | 51% | 1016.1 hPa | 0 mm | - | 501 W/m² | - |
| 1777670411 | 11.11° C | 54% | 1016.1 hPa | 0 mm | - | 287 W/m² | - |
| 1777665610 | 11.67° C | 48% | 1016 hPa | 0 mm | - | 130 W/m² | - |
| 1777665310 | 12.22° C | 46% | 1016 hPa | 0 mm | - | 234 W/m² | - |
| 1777665010 | 12.22° C | 46% | 1016 hPa | 0 mm | - | 311 W/m² | - |
| 1777662010 | 11.11° C | 51% | 1016 hPa | 0 mm | - | 387 W/m² | - |
| 1777661710 | 10.56° C | 52% | 1016 hPa | 0 mm | - | 278 W/m² | - |
| 1777661410 | 10.56° C | 52% | 1016 hPa | 0 mm | - | 258 W/m² | - |
| 1777661110 | 10.56° C | 51% | 1016 hPa | 0 mm | - | 155 W/m² | - |
| 1777660811 | 11.11° C | 50% | 1015.9 hPa | 0 mm | - | 149 W/m² | - |
| 1777660511 | 11.11° C | 49% | 1015.9 hPa | 0 mm | - | 178 W/m² | - |
| 1777660210 | 11.11° C | 52% | 1015.8 hPa | 0 mm | - | 183 W/m² | - |
| 1777659910 | 11.11° C | 48% | 1015.8 hPa | 0 mm | - | 179 W/m² | - |
* Rain latest hour (hover to see other rain measurements)
** Current wind speed in m/s (hover to see current wind gust speed)